Alexandria, LA

1:25 AM CDT on August 19, 2017 (GMT -0500)
Alexandria International

Weather History for KAEX - April, 2012

Change the Weather History Date:

Tuesday, April 24, 2012

  Actual Average Record
Temperature  
Mean Temperature 62 °F 69 °F  
Max Temperature 78 °F 80 °F 92 °F (1925)
Min Temperature 45 °F 57 °F 42 °F (1910)
Degree Days  
Heating Degree Days 3 1  
Month to date heating degree days 17 62  
Since 1 July heating degree days 1512 1942  
Cooling Degree Days 0 4  
Month to date cooling degree days 96 74  
Year to date cooling degree days 249 127  
Growing Degree Days 12 (Base 50)    
Moisture  
Dew Point 48 °F    
Average Humidity 68    
Maximum Humidity 100    
Minimum Humidity 35    
Precipitation  
Precipitation 0.00 in 0.12 in 2.65 in (1937)
Month to date precipitation 4.57 3.85  
Year to date precipitation 29.14 18.58  
Snow  
Snow 0.00 in - 0.00 in ()
Month to date snowfall 0.0  
Since 1 July snowfall 0.0  
Snow Depth 0.00 in    
Sea Level Pressure  
Sea Level Pressure 30.04 in    
Wind  
Wind Speed 5 mph (South)    
Max Wind Speed 14 mph    
Max Gust Speed 18 mph    
Visibility 7 miles    
Events      
T = Trace of Precipitation, MM = Missing Value Source: NWS Daily Summary

Daily Weather History Graph

Daily Weather History Graph

Search for Another Location

Airport or City:

Trip Planner

Search our weather history database for the weather conditions in past years. The results will help you decide how hot, cold, wet, or windy it might be!

Date:

Astronomy

Apr. 24, 2012 Rise Set
Actual Time 6:31 AM CDT 7:45 PM CDT
Civil Twilight 6:06 AM CDT 8:10 PM CDT
Nautical Twilight 5:36 AM CDT 8:40 PM CDT
Astronomical Twilight 5:04 AM CDT 9:12 PM CDT
Moon 8:37 AM CDT (4/24) 10:56 PM CDT (4/24)
Length of Visible Light 14h 04m
Length of Day
13h 13m
Waxing Crescent, 10% of the Moon is Illuminated
Apr 24
Waxing Crescent
Apr 29
First Quarter
May 5
Full
May 12
Last Quarter
May 20
New

Hourly Weather History & Observations

Time (CDT) Temp. Windchill Dew Point Humidity Pressure Visibility Wind Dir Wind Speed Gust Speed Precip Events Conditions
12:53 AM 51.1 °F - 48.0 °F 89% 30.08 in 10.0 mi Calm Calm - N/A   Clear
1:53 AM 50.0 °F - 48.0 °F 93% 30.07 in 10.0 mi Calm Calm - N/A   Clear
2:53 AM 48.9 °F - 46.9 °F 93% 30.06 in 5.0 mi Calm Calm - N/A   Clear
3:53 AM 48.0 °F - 46.0 °F 93% 30.06 in 3.0 mi Calm Calm - N/A   Clear
4:05 AM 48.2 °F - 46.4 °F 93% 30.05 in 2.5 mi Calm Calm - N/A   Clear
4:12 AM 46.4 °F - 46.4 °F 100% 30.05 in 4.0 mi Calm Calm - N/A   Clear
4:21 AM 46.4 °F - 44.6 °F 93% 30.05 in 2.0 mi Calm Calm - N/A   Clear
4:32 AM 48.2 °F - 46.4 °F 93% 30.05 in 3.0 mi Calm Calm - N/A   Clear
4:40 AM 48.2 °F - 46.4 °F 93% 30.05 in 2.5 mi Calm Calm - N/A   Clear
4:53 AM 48.0 °F - 46.0 °F 93% 30.06 in 2.5 mi Calm Calm - N/A   Clear
5:14 AM 46.4 °F - 46.4 °F 100% 30.06 in 1.5 mi Calm Calm - N/A   Clear
5:27 AM 46.4 °F - 44.6 °F 93% 30.06 in 2.5 mi Calm Calm - N/A   Clear
5:39 AM 46.4 °F - 44.6 °F 93% 30.06 in 3.0 mi Calm Calm - N/A   Clear
5:53 AM 46.9 °F - 46.0 °F 97% 30.07 in 4.0 mi SE 3.5 mph - N/A   Clear
6:53 AM 45.0 °F 43.5 °F 44.1 °F 97% 30.09 in 4.0 mi SSE 3.5 mph - N/A   Clear
7:53 AM 51.1 °F - 48.0 °F 89% 30.10 in 7.0 mi ESE 3.5 mph - N/A   Clear
8:53 AM 59.0 °F - 48.9 °F 69% 30.10 in 7.0 mi Calm Calm - N/A   Clear
9:53 AM 64.9 °F - 45.0 °F 48% 30.10 in 10.0 mi South 6.9 mph - N/A   Clear
10:53 AM 69.1 °F - 46.9 °F 45% 30.11 in 10.0 mi SSW 4.6 mph - N/A   Clear
11:53 AM 70.0 °F - 45.0 °F 41% 30.10 in 10.0 mi Calm Calm - N/A   Clear
12:53 PM 73.0 °F - 46.9 °F 39% 30.08 in 10.0 mi SW 8.1 mph - N/A   Clear
1:53 PM 75.0 °F - 46.9 °F 37% 30.06 in 10.0 mi SSW 5.8 mph - N/A   Clear
2:53 PM 77.0 °F - 48.0 °F 36% 30.03 in 10.0 mi SW 9.2 mph - N/A   Clear
3:53 PM 77.0 °F - 48.0 °F 36% 29.99 in 10.0 mi SSW 10.4 mph - N/A   Clear
4:53 PM 78.1 °F - 48.9 °F 36% 29.98 in 10.0 mi WSW 8.1 mph - N/A   Clear
5:53 PM 77.0 °F - 50.0 °F 39% 29.96 in 10.0 mi South 5.8 mph - N/A   Clear
6:53 PM 75.0 °F - 51.1 °F 43% 29.95 in 10.0 mi South 6.9 mph - N/A   Clear
7:53 PM 70.0 °F - 51.1 °F 51% 29.95 in 10.0 mi South 5.8 mph - N/A   Clear
8:53 PM 66.9 °F - 53.1 °F 61% 29.95 in 10.0 mi South 5.8 mph - N/A   Clear
9:53 PM 66.0 °F - 54.0 °F 65% 29.98 in 10.0 mi South 9.2 mph - N/A   Clear
10:53 PM 64.9 °F - 55.0 °F 70% 29.98 in 10.0 mi South 11.5 mph - N/A   Clear
11:53 PM 64.0 °F - 55.9 °F 75% 29.98 in 10.0 mi South 10.4 mph - N/A   Clear